{"data":{"norad_id":67829,"epoch":"2026-05-25T04:57:37.299744Z","epoch_age_seconds":67490,"freshness":"FRESH","line1":"1 67829U 26033J   26145.20668171  .00014713  00000+0  54305-3 0  9990","line2":"2 67829  43.0010 195.1560 0001683 272.3003  87.7656 15.27582302 16375","mean_motion":15.27582302,"eccentricity":0.0001683,"inclination_deg":43.001,"raan_deg":195.156,"arg_perigee_deg":272.3003,"mean_anomaly_deg":87.7656,"bstar":0.00054305,"rev_number":1637,"period_min":94.266606657767,"perigee_km":481.8874665723,"apogee_km":484.19693949204,"semimajor_km":6861.1792030322,"source":"CELESTRAK","updated_at":"2026-05-25T13:38:21.699053Z"}}